Weather History for KOPM - January, 2014

Change the Weather History Date:

Thursday, January 23, 2014

  Actual Average Record
Temperature  
Mean Temperature 60 °F -  
Max Temperature 69 °F - - ()
Min Temperature 51 °F - - ()
Degree Days  
Heating Degree Days 5    
Growing Degree Days 10 (Base 50)    
Moisture  
Dew Point 58 °F    
Average Humidity 80    
Maximum Humidity 94    
Minimum Humidity 73    
Precipitation  
Precipitation 0.01 in - - ()
Sea Level Pressure  
Sea Level Pressure 30.13 in    
Wind  
Wind Speed 17 mph (East)    
Max Wind Speed 25 mph    
Max Gust Speed 37 mph    
Visibility 8 miles    
Events      
T = Trace of Precipitation, MM = Missing Value Source: NWS Daily Summary

Daily Weather History Graph

Daily Weather History Graph

Search for Another Location

Airport or City:

Trip Planner

Search our weather history database for the weather conditions in past years. The results will help you decide how hot, cold, wet, or windy it might be!

Date:

Astronomy

Jan. 23, 2014 Rise Set
Actual Time 7:16 AM CST 6:02 PM CST
Civil Twilight 6:51 AM CST 6:27 PM CST
Nautical Twilight 6:23 AM CST 6:55 PM CST
Astronomical Twilight 5:56 AM CST 7:23 PM CST
Moon No Moon Rise 11:35 AM CST (1/23)
Length of Visible Light 11h 35m
Length of Day
10h 46m
Waning Gibbous, 55% of the Moon is Illuminated
Jan 23
Waning Gibbous
Jan 23
Last Quarter
Jan 30
New
Feb 6
First Quarter
Feb 14
Full

Hourly Weather History & Observations

Time (CST) Temp. Dew Point Humidity Pressure Visibility Wind Dir Wind Speed Gust Speed Precip Events Conditions
12:15 AM 66.2 °F 57.2 °F 73% 30.01 in 10.0 mi SSE 20.7 mph - N/A   Partly Cloudy
12:35 AM 66.2 °F 57.2 °F 73% 30.00 in 10.0 mi SSE 19.6 mph - N/A   Scattered Clouds
12:55 AM 66.2 °F 57.2 °F 73% 30.00 in 10.0 mi SE 19.6 mph - N/A   Mostly Cloudy
1:15 AM 66.2 °F 57.2 °F 73% 30.00 in 10.0 mi SE 18.4 mph - N/A   Scattered Clouds
1:35 AM 66.2 °F 57.2 °F 73% 30.00 in 10.0 mi SE 18.4 mph - N/A   Scattered Clouds
1:55 AM 66.2 °F 57.2 °F 73% 30.00 in 10.0 mi SSE 19.6 mph - N/A   Scattered Clouds
2:15 AM 66.2 °F 57.2 °F 73% 29.99 in 10.0 mi SE 18.4 mph - N/A   Partly Cloudy
2:35 AM 66.2 °F 59.0 °F 78% 29.99 in 10.0 mi SE 17.3 mph - N/A   Mostly Cloudy
2:55 AM 66.2 °F 59.0 °F 78% 29.98 in 10.0 mi SE 17.3 mph - N/A   Mostly Cloudy
3:15 AM 66.2 °F 59.0 °F 78% 29.97 in 10.0 mi SE 19.6 mph - N/A   Scattered Clouds
3:35 AM 66.2 °F 57.2 °F 73% 29.97 in 10.0 mi SE 18.4 mph - N/A   Mostly Cloudy
3:55 AM 66.2 °F 59.0 °F 78% 29.98 in 10.0 mi SE 18.4 mph - N/A   Partly Cloudy
4:15 AM 66.2 °F 59.0 °F 78% 29.99 in 10.0 mi SE 16.1 mph - N/A   Clear
4:35 AM 66.2 °F 57.2 °F 73% 30.00 in 10.0 mi SE 16.1 mph - N/A   Partly Cloudy
4:55 AM 66.2 °F 59.0 °F 78% 30.00 in 10.0 mi SE 15.0 mph - N/A   Mostly Cloudy
5:15 AM 66.2 °F 57.2 °F 73% 30.01 in 10.0 mi SE 15.0 mph - N/A   Mostly Cloudy
5:35 AM 66.2 °F 57.2 °F 73% 30.00 in 10.0 mi SE 18.4 mph - N/A   Scattered Clouds
5:55 AM 66.2 °F 59.0 °F 78% 30.01 in 10.0 mi SE 16.1 mph - N/A   Partly Cloudy
6:15 AM 66.2 °F 59.0 °F 78% 30.02 in 10.0 mi SE 13.8 mph - N/A   Scattered Clouds
6:35 AM 66.2 °F 59.0 °F 78% 30.02 in 10.0 mi SE 16.1 mph - N/A   Scattered Clouds
6:55 AM 66.2 °F 59.0 °F 78% 30.03 in 10.0 mi SE 15.0 mph - N/A   Clear
7:15 AM 66.2 °F 59.0 °F 78% 30.05 in 9.0 mi SE 13.8 mph - N/A   Clear
7:35 AM 66.2 °F 59.0 °F 78% 30.06 in 9.0 mi SE 12.7 mph - N/A   Clear
7:55 AM 66.2 °F 59.0 °F 78% 30.06 in 9.0 mi ESE 13.8 mph - N/A   Clear
8:15 AM 66.2 °F 59.0 °F 78% 30.07 in 9.0 mi ESE 12.7 mph - N/A   Clear
8:35 AM 68.0 °F 59.0 °F 73% 30.08 in 8.0 mi ESE 13.8 mph - N/A   Clear
8:55 AM 68.0 °F 59.0 °F 73% 30.08 in 9.0 mi East 15.0 mph - N/A   Clear
9:15 AM 68.0 °F 59.0 °F 73% 30.09 in 9.0 mi ESE 15.0 mph - N/A   Clear
9:35 AM 68.0 °F 59.0 °F 73% 30.10 in 10.0 mi East 15.0 mph - N/A   Clear
9:55 AM 68.0 °F 59.0 °F 73% 30.12 in 9.0 mi East 12.7 mph - N/A   Clear
10:15 AM 68.0 °F 59.0 °F 73% 30.12 in 10.0 mi East 13.8 mph - N/A   Clear
10:35 AM 68.0 °F 60.8 °F 78% 30.14 in 9.0 mi ESE 11.5 mph - N/A   Clear
10:55 AM 68.0 °F 60.8 °F 78% 30.14 in 10.0 mi ESE 12.7 mph - N/A   Clear
11:15 AM 69.8 °F 60.8 °F 73% 30.14 in 10.0 mi East 12.7 mph - N/A   Clear
11:35 AM 69.8 °F 60.8 °F 73% 30.13 in 9.0 mi East 12.7 mph - N/A   Clear
11:55 AM 69.8 °F 60.8 °F 73% 30.13 in 9.0 mi East 12.7 mph - N/A   Clear
12:15 PM 68.0 °F 60.8 °F 78% 30.13 in 10.0 mi East 12.7 mph - N/A   Clear
12:35 PM 69.8 °F 60.8 °F 73% 30.13 in 9.0 mi East 10.4 mph - N/A   Clear
12:55 PM 69.8 °F 60.8 °F 73% 30.11 in 9.0 mi East 11.5 mph - N/A   Clear
1:15 PM 69.8 °F 60.8 °F 73% 30.11 in 9.0 mi East 10.4 mph - N/A   Clear
1:35 PM 68.0 °F 60.8 °F 78% 30.11 in 9.0 mi East 8.1 mph - N/A   Clear
1:55 PM 69.8 °F 62.6 °F 78% 30.11 in 9.0 mi East 8.1 mph - N/A   Clear
2:15 PM 69.8 °F 62.6 °F 78% 30.11 in 10.0 mi NE 9.2 mph - N/A   Clear
2:35 PM 69.8 °F 62.6 °F 78% 30.12 in 10.0 mi NE 10.4 mph - N/A   Partly Cloudy
2:55 PM 69.8 °F 62.6 °F 78% 30.11 in 10.0 mi NE 11.5 mph - N/A   Clear
3:15 PM 69.8 °F 62.6 °F 78% 30.11 in 10.0 mi NE 11.5 mph - N/A   Clear
3:35 PM 69.8 °F 62.6 °F 78% 30.12 in 10.0 mi NE 11.5 mph - N/A   Clear
3:55 PM 69.8 °F 62.6 °F 78% 30.13 in - NE 11.5 mph - N/A   Clear
4:15 PM 69.8 °F 62.6 °F 78% 30.13 in 8.0 mi NNE 10.4 mph - N/A   Clear
4:35 PM 69.8 °F 62.6 °F 78% 30.14 in 9.0 mi NNE 11.5 mph - N/A   Clear
4:55 PM 69.8 °F 62.6 °F 78% 30.15 in 7.0 mi NNE 5.8 mph - N/A   Mostly Cloudy
5:15 PM 69.8 °F 64.4 °F 83% 30.16 in 5.0 mi NNE 6.9 mph - N/A   Haze
5:35 PM 69.8 °F 64.4 °F 83% 30.17 in 5.0 mi NNE 5.8 mph - N/A   Haze
5:55 PM 68.0 °F 64.4 °F 88% 30.19 in 3.0 mi North 8.1 mph - N/A   Overcast
6:15 PM 62.6 °F 59.0 °F 88% 30.20 in 3.0 mi North 19.6 mph 26.5 mph N/A   Haze
6:35 PM 59.0 °F 55.4 °F 88% 30.22 in 4.0 mi North 18.4 mph 29.9 mph N/A   Overcast
6:55 PM 57.2 °F 55.4 °F 94% 30.23 in 5.0 mi North 19.6 mph 29.9 mph N/A   Overcast
7:15 PM 55.4 °F 53.6 °F 94% 30.24 in 3.0 mi North 23.0 mph 33.4 mph N/A   Overcast
7:35 PM 55.4 °F 51.8 °F 88% 30.25 in 3.0 mi North 25.3 mph 32.2 mph N/A   Overcast
7:55 PM 55.4 °F 51.8 °F 88% 30.28 in 6.0 mi North 18.4 mph 35.7 mph N/A   Overcast
8:15 PM 53.6 °F 51.8 °F 94% 30.29 in 6.0 mi North 20.7 mph 32.2 mph N/A   Overcast
8:35 PM 53.6 °F 50.0 °F 88% 30.30 in 1.0 mi North 23.0 mph 36.8 mph N/A   Overcast
8:55 PM 53.6 °F 50.0 °F 88% 30.31 in 6.0 mi North 24.2 mph 34.5 mph 0.01 in   Mostly Cloudy
9:15 PM 53.6 °F 50.0 °F 88% 30.32 in 5.0 mi North 20.7 mph 33.4 mph N/A   Mostly Cloudy
9:35 PM 53.6 °F 50.0 °F 88% 30.34 in 5.0 mi North 19.6 mph 34.5 mph N/A   Overcast
9:55 PM 53.6 °F 50.0 °F 88% 30.35 in 5.0 mi North 20.7 mph 34.5 mph N/A   Mostly Cloudy
10:15 PM 53.6 °F 50.0 °F 88% 30.36 in 6.0 mi North 21.9 mph 31.1 mph N/A   Mostly Cloudy
10:35 PM 53.6 °F 50.0 °F 88% 30.37 in 4.0 mi North 20.7 mph 28.8 mph N/A   Mostly Cloudy
10:55 PM 51.8 °F 50.0 °F 94% 30.37 in 4.0 mi North 21.9 mph 28.8 mph N/A   Overcast
11:15 PM 51.8 °F 50.0 °F 94% 30.38 in 3.0 mi North 17.3 mph 29.9 mph N/A   Overcast
11:35 PM 51.8 °F 50.0 °F 94% 30.39 in 5.0 mi North 25.3 mph 31.1 mph N/A   Overcast
11:55 PM 51.8 °F 48.2 °F 88% 30.39 in 4.0 mi North 21.9 mph 33.4 mph N/A   Overcast